Location: Newark
(25.4297°S, 49.2719°W)
Time: 10:04:20
(UTC+00:00)

Vanguard 1 Rocket - Pass Details

Date: 22 November 2019
Orbit: 650 x 4226 km, 34.3° (Epoch: 08 December)

Event Time Altitude Azimuth Distance (km) Brightness Sun altitude
Rises 20:01:12 0° 258° (WSW) 7,882 13.7 22.0°
Reaches altitude 10° 20:06:20 10° 255° (WSW) 7,122 14.2 20.9°
Maximum altitude 20:33:00 71° 171° (S) 4,179 11.0 15.1°
Drops below altitude 10° 20:53:20 10° 87° (E) 5,723 10.9 10.7°
Sets 20:56:53 0° 84° (E) 6,359 11.1 9.9°
